Home   Weather   Stavanger   Past weeks

Flag for Norway Past Weather in Stavanger, Norway — Yesterday and Last 2 Weeks

Now
37 °F

Passing clouds.


Feels Like: 34 °F
Forecast: 40 / 42 °F
Wind: 5 mph from South

Location: Stavanger / Sola

Current Time: Feb 26, 2017 at 6:52:09 am

Latest Report: Feb 26, 2017 at 6:20 am


Visibility: 4 mi

Pressure: 29.45 "Hg

Humidity: 93%

Dew Point: 36 °F

Location of StavangerLocation

Past Weather in Stavanger — Graph

°F

Stavanger Temperature Yesterday

Maximum temperature yesterday: 43 °F (at 5:50 pm)
Minimum temperature yesterday: 28 °F (at 12:50 am)
Average temperature yesterday: 37 °F

High & Low Weather Summary for the Past Weeks

 TemperatureHumidityPressure
High45 °F (Feb 17, 1:20 pm)100% (Feb 16, 11:50 pm)30.77 "Hg (Feb 16, 11:50 pm)
Low19 °F (Feb 12, 3:50 am)48% (Feb 11, 3:50 pm)28.80 "Hg (Feb 22, 3:20 pm)
Average36 °F82%29.93 "Hg
* Reported Feb 11 4:50 am — Feb 26 4:50 am, Stavanger, Weather by CustomWeather, © 2017

Note: Actual official high and low records may vary slightly from our data, if they occured in-between our weather recording intervals... More about our weather records

Advertising

Stavanger Weather History for the Previous 24 Hours

Scroll right to see more
 ConditionsComfort  
Time TempWeatherWind HumidityBarometerVisibility
4:50 am
Sun, Feb 26
36 °FPassing clouds.3 mph100%29.45 "Hg4 mi
3:50 am37 °FPassing clouds.No wind93%29.45 "Hg3 mi
2:50 am41 °FPassing clouds.5 mph87%29.45 "Hg5 mi
1:50 am41 °FPassing clouds.8 mph87%29.42 "Hg5 mi
12:50 am41 °FPartly cloudy.9 mph93%29.42 "Hg5 mi
11:50 pm
Sat, Feb 25
43 °FPartly cloudy.13 mph93%29.42 "Hg4 mi
11:20 pm41 °FPassing clouds.13 mph93%29.42 "Hg4 mi
10:50 pm43 °FPartly cloudy.12 mph93%29.39 "Hg4 mi
10:20 pm43 °FPartly cloudy.12 mph93%29.39 "Hg4 mi
9:50 pm43 °FPartly cloudy.10 mph93%29.39 "Hg6 mi
9:20 pm43 °FPartly cloudy.10 mph100%29.36 "Hg4 mi
8:50 pm43 °FPassing clouds.14 mph100%29.36 "Hg4 mi
8:20 pm43 °FDrizzle. Fog.12 mph100%29.36 "Hg2 mi
7:50 pm43 °FDrizzle. Fog.13 mph100%29.33 "Hg2 mi
7:20 pm43 °FDrizzle. Fog.9 mph100%29.33 "Hg2 mi
6:50 pm43 °FDrizzle. Fog.10 mph100%29.33 "Hg2 mi
6:20 pm43 °FDrizzle. Fog.10 mph93%29.33 "Hg2 mi
5:50 pm43 °FDrizzle. Broken clouds.12 mph93%29.33 "Hg2 mi
5:20 pm41 °FDrizzle. Partly sunny.13 mph100%29.33 "Hg2 mi
4:50 pm41 °FLight rain. More clouds than sun.16 mph93%29.33 "Hg4 mi
4:20 pm41 °FLight rain. Broken clouds.18 mph93%29.33 "Hg4 mi
3:50 pm41 °FLight rain. Broken clouds.21 mph93%29.36 "Hg4 mi
3:20 pm41 °FLight rain. Broken clouds.20 mph87%29.36 "Hg6 mi
2:50 pm39 °FLight rain. Partly sunny.21 mph93%29.39 "HgN/A
2:20 pm37 °FLight rain. Partly sunny.22 mph87%29.39 "Hg6 mi
1:50 pm37 °FLight rain. Broken clouds.23 mph87%29.42 "Hg6 mi
1:20 pm37 °FLight rain. Broken clouds.24 mph87%29.45 "Hg6 mi
12:50 pm36 °FLight rain. Broken clouds.25 mph93%29.45 "Hg4 mi
12:20 pm36 °FLight rain. Broken clouds.24 mph93%29.47 "Hg4 mi
11:50 am34 °FLight rain. Broken clouds.25 mph93%29.50 "Hg4 mi
11:20 am34 °FLight rain. Broken clouds.21 mph93%29.53 "HgN/A
10:50 am34 °FLight rain. Partly sunny.23 mph87%29.56 "HgN/A
10:20 am34 °FLight rain. Broken clouds.23 mph87%29.56 "HgN/A
9:50 am34 °FLight rain. Light fog.24 mph87%29.59 "Hg6 mi
9:20 am34 °FLight snow. Light fog.23 mph87%29.59 "Hg5 mi
8:50 am34 °FLight snow. Broken clouds.20 mph81%29.62 "HgN/A
8:20 am34 °FBroken clouds.18 mph81%29.65 "HgN/A
7:50 am34 °FLight snow. Broken clouds.18 mph75%29.65 "HgN/A
7:20 am34 °FPartly cloudy.14 mph75%29.68 "HgN/A
6:50 am34 °FPartly cloudy.15 mph70%29.71 "HgN/A
6:20 am34 °FPartly cloudy.13 mph70%29.74 "HgN/A
Weather by CustomWeather, © 2017

See weather overviewHow to use our weather pages